Flag for India Weather past 2 weeks in Jaipur, Rajasthan, India

Now
86 °F

Haze.


Feels Like: 92 °F
Forecast: 83 / 100 °F
Wind: 17 mph from West

Location: Jaipur / Sanganer

Current Time: Jul 4, 2015 at 11:39:11 AM

Latest Report: Jul 4, 2015 at 10:00 AM


Visibility: 2 mi

Pressure: 29.65 "Hg

Humidity: 62%

Dew point: 72 °F

Location of JaipurLocation

Historic Weather in Jaipur — Graph

°F

Jaipur temperature yesterday

Maximum temperature yesterday: 95 °F (at 3:00 PM)
Minimum temperature yesterday: 81 °F (at 1:00 AM)
Average temperature yesterday: 88 °F

Past Weeks' High & Low Weather Summary

 TemperatureHumidityPressure
High106 °F (Jun 19, 12:30 PM)100% (Jun 25, 3:00 AM)29.77 "Hg (Jun 25, 3:00 AM)
Low75 °F (Jun 29, 9:00 PM)20% (Jun 19, 5:00 PM)29.39 "Hg (Jun 22, 5:30 PM)
Average89 °F61%29.57 "Hg
* Reported Jun 19 9:30 AM — Jul 4 10:00 AM, Jaipur, Weather by CustomWeather, © 2015

Note: Actual official high and low records may vary slightly from our data, if they occured in-between our weather recording intervals... More about our weather records

Advertising

Jaipur weather history for previous 24 hours

 ConditionsComfort  
Time TempWeatherWind HumidityBarometerVisibility
10:00 AM
Sat, Jul 4
86 °FHaze.17 mph62%29.65 "Hg2 mi
9:00 AM86 °FHaze.16 mph62%29.65 "Hg1 mi
8:00 AM84 °FHaze.15 mph66%29.65 "Hg1 mi
7:30 AM84 °FHaze.14 mph62%29.65 "Hg1 mi
7:00 AM84 °FHaze.12 mph62%29.65 "Hg1 mi
6:00 AM84 °FHaze.15 mph66%29.62 "Hg1 mi
5:30 AM84 °FHaze.13 mph66%29.59 "Hg1 mi
5:00 AM82 °FHaze.7 mph74%29.59 "Hg1 mi
4:00 AM84 °FPassing clouds.6 mph70%29.59 "Hg1 mi
3:00 AM84 °FPassing clouds.2 mph74%29.59 "Hg1 mi
2:00 AM84 °FPassing clouds.5 mph70%29.62 "Hg1 mi
1:00 AM86 °FPassing clouds.3 mph66%29.65 "Hg1 mi
11:00 PM
Fri, Jul 3
88 °FPassing clouds.9 mph59%29.68 "Hg1 mi
10:00 PM90 °FPassing clouds.9 mph55%29.68 "Hg1 mi
9:00 PM91 °FPassing clouds.8 mph52%29.65 "Hg1 mi
8:00 PM91 °FPassing clouds.10 mph52%29.65 "Hg1 mi
7:00 PM93 °FScattered clouds.12 mph47%29.62 "Hg2 mi
6:00 PM95 °FScattered clouds.12 mph47%29.62 "Hg2 mi
5:00 PM95 °FBroken clouds.12 mph47%29.62 "Hg2 mi
4:00 PM95 °FBroken clouds.9 mph50%29.65 "Hg2 mi
3:00 PM95 °FBroken clouds.9 mph53%29.65 "Hg2 mi
2:00 PM93 °FScattered clouds.12 mph56%29.68 "Hg2 mi
1:00 PM91 °FScattered clouds.12 mph59%29.71 "Hg2 mi
11:00 AM88 °FHaze.13 mph66%29.71 "Hg1 mi
Weather by CustomWeather, © 2015

See weather overviewHow to use our weather pages